This is the latest recevied weather packets stored in our database for station/object EB5AGF-13. If no packets are shown the sender has not sent any weather packets the latest 10 day(s).
| Time | Temp. | Humidity | Pressure | Rain* | Wind** | Luminosity | Snow |
|---|---|---|---|---|---|---|---|
| 1777418415 | 17.78° C | 86% | 1007.2 hPa | 0 mm | 0.45 m/s, 17° | 0 W/m² | - |
| 1777418112 | 17.78° C | 86% | 1007.1 hPa | 0 mm | 0.45 m/s, 352° | 0 W/m² | - |
| 1777417807 | 17.78° C | 85% | 1007.5 hPa | 0 mm | 0 m/s | 0 W/m² | - |
| 1777417503 | 17.78° C | 85% | 1007.3 hPa | 0 mm | 0 m/s | 0 W/m² | - |
| 1777417199 | 17.78° C | 85% | 1007.3 hPa | 0 mm | 0.89 m/s, 308° | 0 W/m² | - |
| 1777416879 | 17.78° C | 85% | 1007.3 hPa | 0 mm | 0.45 m/s, 311° | 0 W/m² | - |
| 1777416573 | 17.78° C | 85% | 1007.4 hPa | 0 mm | 0.45 m/s, 329° | 0 W/m² | - |
| 1777416272 | 17.78° C | 85% | 1007.4 hPa | 0 mm | 0.45 m/s, 335° | 0 W/m² | - |
| 1777415972 | 17.78° C | 86% | 1007.4 hPa | 0 mm | 0.45 m/s, 355° | 0 W/m² | - |
| 1777415672 | 17.78° C | 86% | 1007.4 hPa | 0 mm | 0.45 m/s, 313° | 0 W/m² | - |
| 1777415372 | 17.78° C | 86% | 1007.2 hPa | 0 mm | 0.45 m/s, 329° | 0 W/m² | - |
| 1777415071 | 17.78° C | 86% | 1007.3 hPa | 0 mm | 1.34 m/s, 12° | 0 W/m² | - |
| 1777414767 | 17.78° C | 87% | 1007.2 hPa | 0 mm | 1.34 m/s, 8° | 0 W/m² | - |
| 1777414464 | 18.33° C | 87% | 1007.4 hPa | 0 mm | 1.34 m/s, 6° | 0 W/m² | - |
| 1777414159 | 18.33° C | 86% | 1007.5 hPa | 0 mm | 1.34 m/s, 5° | 0 W/m² | - |
| 1777413855 | 18.33° C | 86% | 1007.3 hPa | 0 mm | 0.45 m/s, 350° | 0 W/m² | - |
| 1777413551 | 17.78° C | 86% | 1007.2 hPa | 0 mm | 0.89 m/s, 350° | 0 W/m² | - |
| 1777413247 | 17.78° C | 87% | 1007.3 hPa | 0 mm | 0.89 m/s, 7° | 0 W/m² | - |
| 1777412943 | 17.78° C | 88% | 1007.3 hPa | 0 mm | 0.89 m/s, 352° | 0 W/m² | - |
| 1777412639 | 17.78° C | 88% | 1007.3 hPa | 0 mm | 0.45 m/s, 12° | 0 W/m² | - |
| 1777412335 | 17.78° C | 88% | 1007.6 hPa | 0 mm | 0.89 m/s, 2° | 0 W/m² | - |
| 1777412031 | 17.78° C | 88% | 1007.5 hPa | 0 mm | 1.34 m/s, 312° | 0 W/m² | - |
| 1777411727 | 17.78° C | 88% | 1007.4 hPa | 0 mm | 0.89 m/s, 359° | 0 W/m² | - |
| 1777411423 | 17.78° C | 88% | 1007.2 hPa | 0 mm | 0.89 m/s, 346° | 0 W/m² | - |
| 1777411113 | 17.78° C | 88% | 1007.2 hPa | 0 mm | 0.89 m/s, 357° | 0 W/m² | - |
* Rain latest hour (hover to see other rain measurements)
** Current wind speed in m/s (hover to see current wind gust speed)